Regional Weather Roundup
Issued by NWS

Home | Current Version | Previous Version | Text Only | Print | Product List | Glossary Off
Versions: 1 2 3 4 5 6 7 8 9 10 11 12 13 14 15 16 17 18 19 20 21 22 23 24 25 26 27 28 29 30 31 32 33 34 35 36 37 38 39 40 41 42 43 44 45 46 47 48 49 50

161
ASUS43 KBIS 291510
RWRND
NORTH DAKOTA REGIONAL WEATHER ROUNDUP
NATIONAL WEATHER SERVICE EASTERN NORTH DAKOTA/GRAND FORKS ND
1000 AM CDT MON MAY 29 2017

  NOTE: "FAIR" INDICATES FEW OR NO CLOUDS BELOW 12,000 FEET WITH NO
  SIGNIFICANT WEATHER AND/OR OBSTRUCTIONS TO VISIBILITY.

NDZ001>003-009>011-017-291600-
...NORTHWEST NORTH DAKOTA...

CITY           SKY/WX    TMP DP  RH WIND       PRES   REMARKS
WILLISTON      FAIR      57  42  57 NW16      30.14R
MINOT          CLOUDY    57  45  64 NW23G31   30.02S
MINOT AFB      CLOUDY    55  44  64 NW22G29   30.00F
$$

NDZ018>021-031>035-040>046-291600-
...SOUTHWEST NORTH DAKOTA...

CITY           SKY/WX    TMP DP  RH WIND       PRES   REMARKS
BISMARCK       PTSUNNY   59  44  57 NW16G26   30.04S
DICKINSON      FAIR      54  40  59 NW17G25   30.10S
GARRISON         N/A     54  43  66 NW23G33   30.04S
HETTINGER      FAIR      57  39  51 NW20G28   30.13S
$$

NDZ004>008-012>016-024-026-027-054-291600-
...NORTHEAST NORTH DAKOTA...

CITY           SKY/WX    TMP DP  RH WIND       PRES   REMARKS
GRAND FORKS    PTSUNNY   54  50  86 NW14      29.86S
GRAND FORKS AF PTSUNNY   54  50  87 N14       29.87S
DEVILS LAKE    CLOUDY    54  47  77 NW18G24   29.92S
$$

NDZ022-023-025-028>030-036>039-047>053-291600-
...SOUTHEAST NORTH DAKOTA...

CITY           SKY/WX    TMP DP  RH WIND       PRES   REMARKS
JAMESTOWN      CLOUDY    51  47  86 NW18G28   29.94R
FARGO          LGT RAIN  53  50  89 NW15      29.87R
WAHPETON       CLOUDY    52  46  82 NW21      29.88R
$$




USA.gov is the U.S. government's official web portal to all federal, state and local government web resources and services.